TimeMST,TemperatureF,Dew PointF,Humidity,Sea Level PressureIn,VisibilityMPH,Wind Direction,Wind SpeedMPH,Gust SpeedMPH,PrecipitationIn,Events,Conditions,WindDirDegrees,DateUTC
12:56 AM,57.9,24.1,27,29.94,10.0,ENE,8.1,-,N/A,,Clear,70,2013-03-06 07:56:00
1:56 AM,57.9,21.9,25,29.94,10.0,SE,5.8,-,N/A,,Clear,140,2013-03-06 08:56:00
2:56 AM,55.9,21.9,27,29.91,10.0,Calm,Calm,-,N/A,,Clear,0,2013-03-06 09:56:00
3:56 AM,53.1,21.0,29,29.92,10.0,East,6.9,-,N/A,,Clear,100,2013-03-06 10:56:00
4:56 AM,48.9,21.0,33,29.95,10.0,East,4.6,-,N/A,,Clear,80,2013-03-06 11:56:00
5:56 AM,48.0,21.0,34,29.96,10.0,ENE,6.9,-,N/A,,Clear,60,2013-03-06 12:56:00
6:56 AM,46.4,21.2,37,30.11,10.0,Calm,Calm,-,N/A,,Clear,0,2013-03-06 13:56:00
7:56 AM,54.0,24.1,31,30.00,10.0,Calm,Calm,-,N/A,,Clear,0,2013-03-06 14:56:00
8:56 AM,63.0,24.1,23,29.99,10.0,SSE,5.8,-,N/A,,Clear,160,2013-03-06 15:56:00
9:56 AM,69.1,15.1,13,29.98,10.0,SSE,9.2,-,N/A,,Clear,160,2013-03-06 16:56:00
10:56 AM,71.1,14.0,11,29.96,10.0,Variable,5.8,-,N/A,,Clear,0,2013-03-06 17:56:00
11:56 AM,72.0,17.1,12,29.94,10.0,Variable,4.6,-,N/A,,Clear,0,2013-03-06 18:56:00
12:56 PM,78.1,21.9,12,29.88,10.0,Calm,Calm,-,N/A,,Partly Cloudy,0,2013-03-06 19:56:00
1:56 PM,80.1,27.0,14,29.84,10.0,SW,19.6,29.9,N/A,,Clear,230,2013-03-06 20:56:00
2:56 PM,79.0,21.9,12,29.83,10.0,SW,21.9,32.2,N/A,,Partly Cloudy,220,2013-03-06 21:56:00
3:56 PM,78.1,21.9,12,29.83,10.0,SW,16.1,24.2,N/A,,Clear,230,2013-03-06 22:56:00
4:56 PM,77.0,19.9,12,29.83,10.0,SW,20.7,27.6,N/A,,Clear,220,2013-03-06 23:56:00
5:56 PM,73.0,18.0,12,29.84,10.0,West,16.1,-,N/A,,Clear,270,2013-03-07 00:56:00
6:56 PM,66.0,16.0,15,29.87,10.0,West,11.5,-,N/A,,Clear,280,2013-03-07 01:56:00
7:56 PM,61.0,17.1,18,29.88,10.0,West,9.2,-,N/A,,Clear,280,2013-03-07 02:56:00
8:56 PM,57.0,17.1,21,29.88,10.0,Calm,Calm,-,N/A,,Clear,0,2013-03-07 03:56:00
9:56 PM,54.0,17.1,23,29.88,10.0,SSE,6.9,-,N/A,,Clear,150,2013-03-07 04:56:00
10:56 PM,51.1,19.0,28,29.89,10.0,ESE,8.1,-,N/A,,Clear,110,2013-03-07 05:56:00
11:56 PM,51.1,19.9,29,29.88,10.0,ESE,5.8,-,N/A,,Clear,110,2013-03-07 06:56:00